JSX1180 KLAS-KSMO

Flight info

Callsign JSX1180
Flight time 0h 57m
Altitude 16000
Route RADYR2 SLVRR KREME BOGET2
Aircraft AT46/M-SDFGIRY/S

Departure

Time 2026-05-06 23:54
Airport Harry Reid International Airport (KLAS)

Arrival

Time 2026-05-07 00:51
Airport Santa Monica Municipal Airport (KSMO)
Time Latitude Longitude Altitude Speed Heading
2026-05-06 23:25 36.08614 -115.16747 2184 ft 0 kts 204°
2026-05-06 23:49 36.08611 -115.16747 2184 ft 0 kts 188°
2026-05-06 23:49 36.08586 -115.16741 2184 ft 5 kts 158°
2026-05-06 23:49 36.08558 -115.16722 2185 ft 4 kts 131°
2026-05-06 23:49 36.08555 -115.16695 2186 ft 3 kts 61°
2026-05-06 23:50 36.08687 -115.16616 2187 ft 35 kts 24°
2026-05-06 23:50 36.09020 -115.16426 2186 ft 20 kts 25°
2026-05-06 23:50 36.09153 -115.16350 2186 ft 26 kts 24°
2026-05-06 23:51 36.09349 -115.16235 2187 ft 35 kts 26°
2026-05-06 23:51 36.09551 -115.16121 2185 ft 28 kts 26°
2026-05-06 23:51 36.09678 -115.16049 2186 ft 17 kts 25°
2026-05-06 23:51 36.09772 -115.15994 2185 ft 10 kts 25°
2026-05-06 23:52 36.09837 -115.15956 2184 ft 11 kts 24°
2026-05-06 23:52 36.09913 -115.15914 2186 ft 12 kts 25°
2026-05-06 23:52 36.09960 -115.15842 2187 ft 9 kts 73°
2026-05-06 23:52 36.09976 -115.15779 2188 ft 11 kts 71°
2026-05-06 23:53 36.09963 -115.15700 2186 ft 9 kts 135°
2026-05-06 23:53 36.09814 -115.15728 2185 ft 42 kts 205°
2026-05-06 23:53 36.09303 -115.16023 2186 ft 117 kts 206°
2026-05-06 23:53 36.08416 -115.16536 2319 ft 162 kts 203°
2026-05-06 23:54 36.07341 -115.17133 2845 ft 172 kts 202°
2026-05-06 23:54 36.06207 -115.17727 3374 ft 175 kts 200°
2026-05-06 23:54 36.05093 -115.18305 3912 ft 175 kts 202°
2026-05-06 23:54 36.03939 -115.18760 4450 ft 174 kts 184°
2026-05-06 23:55 36.02721 -115.18844 4935 ft 176 kts 182°
2026-05-06 23:55 36.01500 -115.18912 5463 ft 179 kts 182°
2026-05-06 23:55 36.00240 -115.18970 5932 ft 181 kts 181°
2026-05-06 23:55 35.98981 -115.19013 6438 ft 183 kts 181°
2026-05-06 23:56 35.97694 -115.19051 6911 ft 186 kts 181°
2026-05-06 23:56 35.96387 -115.19068 7404 ft 188 kts 181°
2026-05-06 23:56 35.95087 -115.19122 7868 ft 190 kts 182°
2026-05-06 23:56 35.93748 -115.19157 8324 ft 192 kts 181°
2026-05-06 23:57 35.92410 -115.19180 8786 ft 194 kts 181°
2026-05-06 23:57 35.91044 -115.19201 9283 ft 197 kts 181°
2026-05-06 23:57 35.89660 -115.19216 9774 ft 199 kts 181°
2026-05-06 23:57 35.88277 -115.19230 10217 ft 202 kts 180°
2026-05-06 23:58 35.86866 -115.19217 10638 ft 204 kts 179°
2026-05-06 23:58 35.85430 -115.19162 11072 ft 207 kts 177°
2026-05-06 23:58 35.83978 -115.19106 11504 ft 209 kts 178°
2026-05-06 23:58 35.82531 -115.19081 11930 ft 211 kts 177°
2026-05-06 23:59 35.81054 -115.19024 12346 ft 212 kts 176°
2026-05-06 23:59 35.79581 -115.18966 12768 ft 215 kts 176°
2026-05-06 23:59 35.78076 -115.18927 13194 ft 217 kts 176°
2026-05-06 23:59 35.76558 -115.18894 13621 ft 217 kts 176°
2026-05-07 00:00 35.75039 -115.18869 13972 ft 219 kts 176°
2026-05-07 00:00 35.73517 -115.18858 14357 ft 220 kts 176°
2026-05-07 00:00 35.71988 -115.18831 14717 ft 222 kts 176°
2026-05-07 00:00 35.70442 -115.18802 15090 ft 223 kts 176°
2026-05-07 00:01 35.68865 -115.18770 15467 ft 224 kts 176°
2026-05-07 00:01 35.67300 -115.18737 15818 ft 226 kts 175°
2026-05-07 00:01 35.65683 -115.18701 15943 ft 240 kts 175°
2026-05-07 00:01 35.63974 -115.18661 15991 ft 255 kts 176°
2026-05-07 00:02 35.62144 -115.18630 16006 ft 269 kts 176°
2026-05-07 00:02 35.60230 -115.18605 16015 ft 279 kts 177°
2026-05-07 00:02 35.58255 -115.18574 16010 ft 286 kts 176°
2026-05-07 00:02 35.56254 -115.18536 16022 ft 292 kts 176°
2026-05-07 00:03 35.54195 -115.18497 16008 ft 297 kts 176°
2026-05-07 00:03 35.52114 -115.18459 16007 ft 300 kts 176°
2026-05-07 00:03 35.50035 -115.18416 16001 ft 301 kts 176°
2026-05-07 00:03 35.47947 -115.18370 16003 ft 302 kts 176°
2026-05-07 00:04 35.45833 -115.18329 16005 ft 303 kts 176°
2026-05-07 00:04 35.43711 -115.18282 16004 ft 304 kts 176°
2026-05-07 00:04 35.41584 -115.18241 15998 ft 305 kts 176°
2026-05-07 00:04 35.39488 -115.18198 16000 ft 306 kts 176°
2026-05-07 00:05 35.37357 -115.18157 16002 ft 306 kts 176°
2026-05-07 00:05 35.35222 -115.18112 15998 ft 307 kts 176°
2026-05-07 00:05 35.33082 -115.18068 15998 ft 307 kts 176°
2026-05-07 00:05 35.30962 -115.18026 15991 ft 307 kts 176°
2026-05-07 00:06 35.28827 -115.17982 15990 ft 307 kts 176°
2026-05-07 00:06 35.26685 -115.17940 15988 ft 307 kts 176°
2026-05-07 00:06 35.24544 -115.17895 15986 ft 306 kts 176°
2026-05-07 00:06 35.22406 -115.17849 15982 ft 307 kts 176°
2026-05-07 00:07 35.20290 -115.17808 15979 ft 306 kts 176°
2026-05-07 00:07 35.18150 -115.17765 15977 ft 306 kts 176°
2026-05-07 00:07 35.16011 -115.17722 15974 ft 306 kts 176°
2026-05-07 00:07 35.13919 -115.18075 15971 ft 307 kts 200°
2026-05-07 00:08 35.12180 -115.19526 15970 ft 307 kts 229°
2026-05-07 00:08 35.11156 -115.21787 15974 ft 301 kts 258°
2026-05-07 00:08 35.10881 -115.24274 15976 ft 299 kts 269°
2026-05-07 00:08 35.10663 -115.26812 15973 ft 301 kts 266°
2026-05-07 00:09 35.10253 -115.29348 15974 ft 304 kts 258°
2026-05-07 00:09 35.09640 -115.31793 15974 ft 304 kts 255°
2026-05-07 00:09 35.08957 -115.34245 15969 ft 305 kts 254°
2026-05-07 00:09 35.08273 -115.36701 15972 ft 305 kts 255°
2026-05-07 00:10 35.07618 -115.39171 15973 ft 305 kts 256°
2026-05-07 00:10 35.06993 -115.41616 15972 ft 305 kts 256°
2026-05-07 00:10 35.06356 -115.44097 15967 ft 305 kts 256°
2026-05-07 00:10 35.05723 -115.46586 15970 ft 305 kts 256°
2026-05-07 00:11 35.05094 -115.49036 15962 ft 306 kts 256°
2026-05-07 00:11 35.04449 -115.51543 15970 ft 308 kts 256°
2026-05-07 00:11 35.03812 -115.54016 15971 ft 309 kts 256°
2026-05-07 00:11 35.03166 -115.56525 15964 ft 309 kts 256°
2026-05-07 00:12 35.02520 -115.59036 15966 ft 310 kts 256°
2026-05-07 00:12 35.01880 -115.61519 15963 ft 310 kts 256°
2026-05-07 00:12 35.01230 -115.64039 15964 ft 310 kts 256°
2026-05-07 00:12 35.00589 -115.66524 15960 ft 310 kts 256°
2026-05-07 00:13 34.99940 -115.69038 15957 ft 309 kts 256°
2026-05-07 00:13 34.99290 -115.71549 15959 ft 309 kts 256°
2026-05-07 00:13 34.98640 -115.74061 15959 ft 309 kts 256°
2026-05-07 00:13 34.97992 -115.76560 15956 ft 309 kts 256°
2026-05-07 00:14 34.97347 -115.79046 15960 ft 309 kts 256°
2026-05-07 00:14 34.96698 -115.81548 15956 ft 309 kts 255°
2026-05-07 00:14 34.96054 -115.84029 15955 ft 309 kts 255°
2026-05-07 00:14 34.95401 -115.86542 15953 ft 309 kts 255°
2026-05-07 00:15 34.94756 -115.89020 15957 ft 310 kts 255°
2026-05-07 00:15 34.94104 -115.91527 15964 ft 310 kts 255°
2026-05-07 00:15 34.93457 -115.94048 15945 ft 310 kts 256°
2026-05-07 00:15 34.92818 -115.96565 15943 ft 310 kts 255°
2026-05-07 00:16 34.92183 -115.99043 15945 ft 310 kts 256°
2026-05-07 00:16 34.91536 -116.01567 15945 ft 310 kts 255°
2026-05-07 00:16 34.90881 -116.04079 15949 ft 310 kts 255°
2026-05-07 00:16 34.90235 -116.06553 15945 ft 310 kts 255°
2026-05-07 00:17 34.89573 -116.09076 15946 ft 310 kts 255°
2026-05-07 00:17 34.88921 -116.11560 15947 ft 310 kts 255°
2026-05-07 00:17 34.88263 -116.14072 15950 ft 310 kts 255°
2026-05-07 00:17 34.87608 -116.16551 15952 ft 310 kts 255°
2026-05-07 00:18 34.86945 -116.19063 15948 ft 310 kts 255°
2026-05-07 00:18 34.86285 -116.21569 15951 ft 310 kts 255°
2026-05-07 00:18 34.85626 -116.24076 15950 ft 310 kts 255°
2026-05-07 00:18 34.84973 -116.26547 15947 ft 310 kts 255°
2026-05-07 00:19 34.84310 -116.29053 15957 ft 310 kts 255°
2026-05-07 00:19 34.83650 -116.31557 15950 ft 310 kts 255°
2026-05-07 00:19 34.82996 -116.34027 15958 ft 309 kts 255°
2026-05-07 00:19 34.82333 -116.36526 15959 ft 309 kts 255°
2026-05-07 00:20 34.81677 -116.39002 15963 ft 309 kts 255°
2026-05-07 00:20 34.81017 -116.41503 15966 ft 309 kts 255°
2026-05-07 00:20 34.80360 -116.43973 15974 ft 309 kts 255°
2026-05-07 00:20 34.79707 -116.46472 15980 ft 307 kts 257°
2026-05-07 00:21 34.79311 -116.49023 15983 ft 306 kts 266°
2026-05-07 00:21 34.79121 -116.51577 15987 ft 306 kts 269°
2026-05-07 00:21 34.78949 -116.54171 15988 ft 307 kts 268°
2026-05-07 00:21 34.78733 -116.56745 15988 ft 307 kts 266°
2026-05-07 00:22 34.78474 -116.59318 15989 ft 307 kts 266°
2026-05-07 00:22 34.78217 -116.61909 15993 ft 307 kts 266°
2026-05-07 00:22 34.77967 -116.64474 15998 ft 307 kts 266°
2026-05-07 00:22 34.77712 -116.67058 15997 ft 307 kts 266°
2026-05-07 00:23 34.77458 -116.69652 16002 ft 308 kts 266°
2026-05-07 00:23 34.77204 -116.72213 16001 ft 308 kts 266°
2026-05-07 00:23 34.76948 -116.74808 15999 ft 308 kts 266°
2026-05-07 00:23 34.76690 -116.77401 15997 ft 309 kts 266°
2026-05-07 00:24 34.76439 -116.79968 15996 ft 309 kts 266°
2026-05-07 00:24 34.76180 -116.82564 15995 ft 309 kts 266°
2026-05-07 00:24 34.76008 -116.84285 15994 ft 308 kts 266°
2026-05-07 00:24 34.75661 -116.87728 16000 ft 308 kts 266°
2026-05-07 00:25 34.75486 -116.89478 15997 ft 308 kts 266°
2026-05-07 00:25 34.75144 -116.92891 15992 ft 307 kts 266°
2026-05-07 00:25 34.74968 -116.94632 15994 ft 307 kts 266°
2026-05-07 00:25 34.74711 -116.97193 15991 ft 307 kts 266°
2026-05-07 00:26 34.74451 -116.99776 15988 ft 307 kts 266°
2026-05-07 00:26 34.74189 -117.02360 15991 ft 307 kts 266°
2026-05-07 00:26 34.73934 -117.04920 15990 ft 307 kts 266°
2026-05-07 00:26 34.73678 -117.07516 15989 ft 308 kts 266°
2026-05-07 00:27 34.73404 -117.10082 16012 ft 308 kts 266°
2026-05-07 00:27 34.73132 -117.12685 16018 ft 308 kts 266°
2026-05-07 00:27 34.72873 -117.15248 16024 ft 308 kts 266°
2026-05-07 00:27 34.72606 -117.17841 16034 ft 308 kts 266°
2026-05-07 00:28 34.72342 -117.20432 16036 ft 308 kts 266°
2026-05-07 00:28 34.72075 -117.22996 16045 ft 308 kts 266°
2026-05-07 00:28 34.71809 -117.25590 16055 ft 308 kts 266°
2026-05-07 00:28 34.71541 -117.28178 16054 ft 308 kts 266°
2026-05-07 00:29 34.71274 -117.30772 16057 ft 308 kts 266°
2026-05-07 00:29 34.71010 -117.33326 16062 ft 308 kts 266°
2026-05-07 00:30 34.70193 -117.41079 16065 ft 308 kts 266°
2026-05-07 00:30 34.69923 -117.43638 16067 ft 307 kts 266°
2026-05-07 00:30 34.69654 -117.46229 16063 ft 307 kts 266°
2026-05-07 00:30 34.69388 -117.48794 16061 ft 307 kts 266°
2026-05-07 00:31 34.69110 -117.51387 16058 ft 308 kts 266°
2026-05-07 00:31 34.68840 -117.53943 16053 ft 308 kts 266°
2026-05-07 00:31 34.68568 -117.56535 16040 ft 308 kts 266°
2026-05-07 00:31 34.68292 -117.59122 16034 ft 308 kts 266°
2026-05-07 00:32 34.68018 -117.61706 16031 ft 307 kts 266°
2026-05-07 00:32 34.67747 -117.64259 16033 ft 308 kts 266°
2026-05-07 00:32 34.67472 -117.66845 16023 ft 308 kts 266°
2026-05-07 00:32 34.67199 -117.69423 16017 ft 308 kts 266°
2026-05-07 00:33 34.66924 -117.72007 15994 ft 308 kts 266°
2026-05-07 00:33 34.66648 -117.74590 15991 ft 308 kts 266°
2026-05-07 00:33 34.66371 -117.77149 15994 ft 308 kts 265°
2026-05-07 00:33 34.66086 -117.79752 16014 ft 308 kts 266°
2026-05-07 00:34 34.65807 -117.82324 16020 ft 308 kts 266°
2026-05-07 00:34 34.65531 -117.84875 16031 ft 308 kts 266°
2026-05-07 00:34 34.65247 -117.87475 16031 ft 308 kts 266°
2026-05-07 00:34 34.64969 -117.90045 16036 ft 308 kts 266°
2026-05-07 00:35 34.64688 -117.92611 16042 ft 309 kts 266°
2026-05-07 00:35 34.64406 -117.95213 16044 ft 309 kts 266°
2026-05-07 00:35 34.64124 -117.97785 16047 ft 309 kts 266°
2026-05-07 00:35 34.63842 -118.00389 16048 ft 310 kts 266°
2026-05-07 00:36 34.63557 -118.02983 16046 ft 310 kts 265°
2026-05-07 00:36 34.63241 -118.05581 15965 ft 314 kts 260°
2026-05-07 00:36 34.62362 -118.07932 15717 ft 306 kts 238°
2026-05-07 00:36 34.61103 -118.09968 15475 ft 297 kts 231°
2026-05-07 00:37 34.59780 -118.11901 15229 ft 295 kts 231°
2026-05-07 00:37 34.58495 -118.13799 14994 ft 293 kts 232°
2026-05-07 00:37 34.57242 -118.15755 14760 ft 292 kts 234°
2026-05-07 00:37 34.56028 -118.17724 14520 ft 291 kts 234°
2026-05-07 00:38 34.54801 -118.19694 14285 ft 291 kts 234°
2026-05-07 00:38 34.53594 -118.21623 14032 ft 290 kts 233°
2026-05-07 00:38 34.52376 -118.23567 13795 ft 289 kts 233°
2026-05-07 00:38 34.51160 -118.25511 13539 ft 288 kts 233°
2026-05-07 00:39 34.49941 -118.27460 13269 ft 288 kts 234°
2026-05-07 00:39 34.48750 -118.29359 13021 ft 286 kts 234°
2026-05-07 00:39 34.47539 -118.31284 12765 ft 285 kts 234°
2026-05-07 00:39 34.46337 -118.33205 12505 ft 285 kts 234°
2026-05-07 00:40 34.45136 -118.35119 12268 ft 285 kts 234°
2026-05-07 00:40 34.43950 -118.37010 12002 ft 285 kts 234°
2026-05-07 00:40 34.42749 -118.38921 11754 ft 284 kts 234°
2026-05-07 00:40 34.41323 -118.40564 11511 ft 283 kts 208°
2026-05-07 00:41 34.39472 -118.41185 11284 ft 279 kts 178°
2026-05-07 00:41 34.37632 -118.40652 11040 ft 269 kts 146°
2026-05-07 00:41 34.36231 -118.39482 10833 ft 263 kts 139°
2026-05-07 00:41 34.34850 -118.38296 10633 ft 265 kts 141°
2026-05-07 00:42 34.33278 -118.37130 10431 ft 267 kts 146°
2026-05-07 00:42 34.31669 -118.36162 10165 ft 242 kts 150°
2026-05-07 00:42 34.30161 -118.35347 9906 ft 239 kts 151°
2026-05-07 00:42 34.28617 -118.34501 9645 ft 245 kts 150°
2026-05-07 00:43 34.27079 -118.33624 9375 ft 247 kts 150°
2026-05-07 00:43 34.25509 -118.32718 9126 ft 250 kts 150°
2026-05-07 00:43 34.23944 -118.31819 8894 ft 252 kts 151°
2026-05-07 00:43 34.22362 -118.30899 8643 ft 253 kts 150°
2026-05-07 00:44 34.20771 -118.29949 8379 ft 254 kts 150°
2026-05-07 00:44 34.19204 -118.29016 8133 ft 254 kts 151°
2026-05-07 00:44 34.17607 -118.28109 7879 ft 251 kts 157°
2026-05-07 00:44 34.15864 -118.27970 7630 ft 256 kts 192°
2026-05-07 00:45 34.14293 -118.28971 7396 ft 256 kts 220°
2026-05-07 00:45 34.13064 -118.30503 7169 ft 256 kts 231°
2026-05-07 00:45 34.11981 -118.32191 6944 ft 256 kts 234°
2026-05-07 00:45 34.10915 -118.33927 6705 ft 256 kts 235°
2026-05-07 00:46 34.09773 -118.35594 6468 ft 257 kts 228°
2026-05-07 00:46 34.08563 -118.37037 6167 ft 230 kts 225°
2026-05-07 00:46 34.07445 -118.38299 5677 ft 212 kts 224°
2026-05-07 00:46 34.06396 -118.39466 5187 ft 199 kts 225°
2026-05-07 00:47 34.05400 -118.40578 4694 ft 190 kts 225°
2026-05-07 00:47 34.04291 -118.41336 4189 ft 184 kts 189°
2026-05-07 00:47 34.03097 -118.41008 3718 ft 179 kts 144°
2026-05-07 00:47 34.02469 -118.39802 3372 ft 170 kts 93°
2026-05-07 00:48 34.02803 -118.38532 3184 ft 158 kts 51°
2026-05-07 00:48 34.03544 -118.37476 2755 ft 167 kts 46°
2026-05-07 00:48 34.04489 -118.36840 2547 ft 153 kts
2026-05-07 00:48 34.05363 -118.37336 2462 ft 141 kts 303°
2026-05-07 00:49 34.05441 -118.38477 2419 ft 143 kts 249°
2026-05-07 00:49 34.05139 -118.39632 2171 ft 156 kts 266°
2026-05-07 00:49 34.05040 -118.40937 1651 ft 156 kts 252°
2026-05-07 00:49 34.04385 -118.41968 1164 ft 155 kts 228°
2026-05-07 00:50 34.03648 -118.42804 865 ft 131 kts 219°
2026-05-07 00:50 34.03015 -118.43454 528 ft 109 kts 222°
2026-05-07 00:50 34.02503 -118.44036 321 ft 101 kts 224°
2026-05-07 00:50 34.02014 -118.44617 179 ft 97 kts 227°
2026-05-07 00:51 34.01580 -118.45134 127 ft 76 kts 225°
2026-05-07 00:51 34.01370 -118.45385 130 ft 19 kts 224°
2026-05-07 00:51 34.01335 -118.45450 129 ft 4 kts 287°
2026-05-07 00:51 34.01353 -118.45477 129 ft 6 kts 314°
2026-05-07 00:52 34.01393 -118.45468 128 ft 11 kts 48°
2026-05-07 00:52 34.01459 -118.45388 129 ft 16 kts 44°
2026-05-07 00:52 34.01545 -118.45286 127 ft 18 kts 41°
2026-05-07 00:52 34.01633 -118.45182 127 ft 17 kts 47°
2026-05-07 00:53 34.01713 -118.45088 127 ft 15 kts 41°
2026-05-07 00:53 34.01758 -118.45070 126 ft 1 kts 344°
2026-05-07 00:53 34.01769 -118.45073 127 ft 2 kts 342°
2026-05-07 00:53 34.01773 -118.45079 128 ft 1 kts 259°
2026-05-07 00:54 34.01764 -118.45075 127 ft 1 kts 141°
2026-05-07 00:54 34.01763 -118.45070 126 ft 1 kts 85°
2026-05-07 00:54 34.01763 -118.45069 126 ft 0 kts 81°